Notices

What's New in latest Release from April 7th, 2021:

- Updated Glossary, including Speed of Maximum Gust, and Total Hourly Precipitation

- Updated national and regional climate services offices contacts and prices information

- Addition of station inventory lists for 1981-2010, 1971-2000, and 1961-1990 Normals.

If you haven't already, please take our survey and provide feedback about our website: https://eccc.sondage-survey.ca/f/LanguageSelection.aspx?s=442ca660-fcf1-47c0-95a9-59707d6fd709

Hourly Data Report for June 07, 2003

TORONTO CITY
ONTARIO

43°40'00.000" N
79°24'00.000" W
112.50 m
6158355
71508
XTO

Download Data

Hourly Data (June 2003)
Hourly Data Report for June 7, 2003
TIME
LST
Temp Definition
°C
Dew Point Definition
°C
Rel Hum Definition
%
Precip. Amount Definition
mm

Wind Dir Definition
10's deg

Wind Spd Definition
km/h
Visibility Definition
km
Stn Press Definition
kPa
Hmdx Definition


Wind Chill Definition


Weather Definition


00:00 17.1 12.4 74   LegendMM LegendMM LegendMM 99.97     LegendNANA
01:00 16.0 11.6 75   LegendMM LegendMM LegendMM 99.97     LegendNANA
02:00 15.8 13.5 86   LegendMM LegendMM LegendMM 99.90     LegendNANA
03:00 14.1 10.3 78   LegendMM LegendMM LegendMM 99.89     LegendNANA
04:00 14.6 10.6 77   LegendMM LegendMM LegendMM 99.88     LegendNANA
05:00 14.9 10.7 76   LegendMM LegendMM LegendMM 99.82     LegendNANA
06:00 15.2 11.0 76   LegendMM LegendMM LegendMM 99.82     LegendNANA
07:00 15.5 11.3 76   LegendMM LegendMM LegendMM 99.78     LegendNANA
08:00 16.8 11.7 72   LegendMM LegendMM LegendMM 99.76     LegendNANA
09:00 17.4 10.5 64   LegendMM LegendMM LegendMM 99.76     LegendNANA
10:00 17.2 12.3 73   LegendMM LegendMM LegendMM 99.74     LegendNANA
11:00 19.2 13.6 70   LegendMM LegendMM LegendMM 99.73     LegendNANA
12:00 20.3 14.4 69   LegendMM LegendMM LegendMM 99.69     LegendNANA
13:00 18.9 13.3 70   LegendMM LegendMM LegendMM 99.64     LegendNANA
14:00 19.6 13.3 67   LegendMM LegendMM LegendMM 99.61     LegendNANA
15:00 20.8 14.7 68   LegendMM LegendMM LegendMM 99.54 25   LegendNANA
16:00 19.6 14.2 71   LegendMM LegendMM LegendMM 99.54     LegendNANA
17:00 18.7 14.2 75   LegendMM LegendMM LegendMM 99.54     LegendNANA
18:00 17.2 14.3 83   LegendMM LegendMM LegendMM 99.50     LegendNANA
19:00 15.9 14.4 91   LegendMM LegendMM LegendMM 99.55     LegendNANA
20:00 15.7 14.9 95   LegendMM LegendMM LegendMM 99.59     LegendNANA
21:00 15.4 14.6 95   LegendMM LegendMM LegendMM 99.62     LegendNANA
22:00 15.0 14.4 96   LegendMM LegendMM LegendMM 99.63     LegendNANA
23:00 14.8 14.3 97   LegendMM LegendMM LegendMM 99.61     LegendNANA

Notes on Data Quality.

Legend

  • E = Estimated
  • M = Missing
  • NA = Not Available*
  • [empty] = Indicates an unobserved value
Date modified: